Weather Roundup
Issued by NWS

Home | Current Version | Previous Version | Graphics & Text | Print | Product List | Glossary Off
Versions: 1 2 3 4 5 6 7 8 9 10 11 12 13 14 15 16 17 18 19 20 21 22 23 24 25 26 27 28 29 30 31 32 33 34 35 36 37 38 39 40 41 42 43 44 45 46 47 48 49 50

000
NZUS93 KARX 021659
HRRWXR

CURRENT HOURLY OBSERVATIONS ACROSS
MUCH OF THE UPPER MISSISSIPPI VALLEY
NATIONAL WEATHER SERVICE LA CROSSE WI
1200 PM CDT WED SEP 02 2015


...SOUTHEAST MINNESOTA...


CITY           SKY/WX    TMP DP  RH WIND       PRES   REMARKS
ROCHESTER      SUNNY     78  68  71 S16G23    29.95F
ROCHESTER/MAYO FAIR      79  66  65 S10G21    29.95F
WINONA         PTSUNNY   82  64  54 SE7       29.94F
AUSTIN         SUNNY     81  70  69 S15       29.93F
ALBERT LEA     MOSUNNY   81  68  65 S9G20     29.92S
DODGE CENTER   SUNNY     79  68  69 S12       29.94F
PRESTON        CLOUDY    78  66  67 SW10      29.98S
OWATONNA       SUNNY     81  68  65 S12G20    29.91F
FARIBAULT      MOSUNNY   81  70  69 S7        29.91F
$$

...ELSEWHERE IN MINNESOTA...


CITY           SKY/WX    TMP DP  RH WIND       PRES   REMARKS
MINNEAPOLIS    CLOUDY    75  67  76 SE13      29.91F
INTNL FALLS    CLOUDY    77  67  71 SE14      29.94F
DULUTH         CLOUDY    68  64  87 NE5       29.99F
RED WING       PTSUNNY   77  70  78 E8        29.91F
REDWOOD FALLS  SUNNY     81  71  71 S8        29.86S
MANKATO        MOSUNNY   81  70  69 S10       29.88F
WORTHINGTON    SUNNY     79  70  73 S15       29.88F
FAIRMONT       SUNNY     81  66  61 S16G23    29.88F
$$

...SOUTHWEST WISCONSIN...


CITY           SKY/WX    TMP DP  RH WIND       PRES   REMARKS
LA CROSSE      MOSUNNY   83  67  58 S10       29.95F
PRAIRIE DU CHI CLOUDY    78  67  68 SE3       29.98F
BOSCOBEL       CLOUDY    81  69  67 SW8       29.99S
LONE ROCK      NOT AVBL
PLATTEVILLE    PTSUNNY   80  72  77 SW10      30.02F
FORT MC COY    CLOUDY    81  66  61 S7        29.98S
VIROQUA          N/A     77  69  75 S7        30.01S
WIS DELLS      MOSUNNY   85  65  49 SW13G18   30.00S
$$

...ELSEWHERE IN WISCONSIN...


CITY           SKY/WX    TMP DP  RH WIND       PRES   REMARKS
MILWAUKEE      PTSUNNY   87  69  54 SW9       30.00F HX  91
MADISON        PTSUNNY   84  68  58 SW7       30.00S
GREEN BAY      PTSUNNY   86  72  62 W3        29.97F HX  92
EAU CLAIRE     NOT AVBL
BLACK RVR FLS  CLOUDY    81  68  65 SW5       29.96F
MEDFORD        CLOUDY    70  68  91 NE5       30.02S
WAUSAU         PTSUNNY   81  70  69 NW6       29.98S
WIS RAPIDS     MOSUNNY   85  68  56 S8        29.99F
MARSHFIELD     PTSUNNY   81  68  64 S5        29.99F
RICE LAKE      CLOUDY    67  65  92 E8        30.00F
$$

...NORTHEAST IOWA...


CITY           SKY/WX    TMP DP  RH WIND       PRES   REMARKS
DECORAH        MOSUNNY   79  68  69 VRB7G17   29.98S
MASON CITY     SUNNY     82  69  64 SW25      29.94S
CHARLES CITY   MOSUNNY   79  72  78 S14G23    29.97S
OELWEIN        MOSUNNY   79  70  73 S14       30.00S
$$

...ELSEWHERE IN IOWA...


CITY           SKY/WX    TMP DP  RH WIND       PRES   REMARKS
DES MOINES     MOSUNNY   82  67  60 SW20G28   29.95F
IOWA CITY      CLOUDY    77  69  76 S6        30.02F
FORT DODGE     MOSUNNY   81  70  69 S20G29    29.93F
$$

...NORTHERN ILLINOIS...


CITY           SKY/WX    TMP DP  RH WIND       PRES   REMARKS
CHICAGO-OHARE  MOSUNNY   86  69  56 SW8       30.03F HX  90
CHICAGO-MIDWAY MOSUNNY   88  69  53 W10       30.03F HX  92
MOLINE         PTSUNNY   85  69  58 SW12      30.02S
ROCKFORD       MOSUNNY   86  69  56 SW8       30.03F HX  90
PEORIA         MOSUNNY   87  70  56 S8        30.05F HX  92
$$

NOTE: "FAIR" INDICATES FEW OR NO CLOUDS BELOW 12,000 FEET WITH NO
SIGNIFICANT WEATHER AND/OR OBSTRUCTIONS TO VISIBILITY. WIND
SPEEDS ARE IN MILES-PER-HOUR.



USA.gov is the U.S. government's official web portal to all federal, state and local government web resources and services.